• în România
  • Lista ţărilor
  • Pe 7 zile
  • Temperatura apei
  • Hartă satelitară
  • Meteo pe hartă
  • Widget-uri
  • user-avatar
    Intrare

    Meteo pe oră la Mochalino

    Astăzi, 20 Aprilie, Vineri

    Timp Temperatura Precipitaţii Vânt Presiune Umiditate
    00:00 +6°C° 0 mm 4 m/s 746 mmHg 87%
    01:00 +5°C° 0 mm 3 m/s 747 mmHg 89%
    02:00 +5°C° 0 mm 3 m/s 747 mmHg 91%
    03:00 +4°C° 0 mm 3 m/s 747 mmHg 92%
    04:00 +4°C° 0 mm 3 m/s 747 mmHg 94%
    05:00 +4°C° 0 mm 3 m/s 747 mmHg 96%
    06:00 +4°C° 0 mm 3 m/s 748 mmHg 94%
    07:00 +5°C° 0 mm 3 m/s 748 mmHg 91%
    08:00 +7°C° 0 mm 3 m/s 748 mmHg 89%
    09:00 +8°C° 0 mm 3 m/s 748 mmHg 84%
    10:00 +9°C° 0 mm 3 m/s 748 mmHg 79%
    11:00 +10°C° 0 mm 3 m/s 748 mmHg 74%
    12:00 +11°C° 0 mm 3 m/s 748 mmHg 69%
    13:00 +12°C° 0 mm 3 m/s 748 mmHg 63%
    14:00 +14°C° 0 mm 2 m/s 748 mmHg 57%
    15:00 +14°C° 0 mm 2 m/s 747 mmHg 57%
    16:00 +15°C° 0 mm 2 m/s 747 mmHg 56%
    17:00 +15°C° 0 mm 2 m/s 746 mmHg 56%
    18:00 +13°C° 0 mm 2 m/s 746 mmHg 63%
    19:00 +10°C° 0 mm 2 m/s 745 mmHg 70%
    20:00 +9°C° 0 mm 2 m/s 745 mmHg 77%
    21:00 +9°C° 0 mm 2 m/s 744 mmHg 76%
    22:00 +9°C° 0 mm 3 m/s 743 mmHg 76%
    23:00 +9°C° 0 mm 3 m/s 743 mmHg 76%

    Mâine, 21 Aprilie, Sâmbătă

    Timp Temperatura Precipitaţii Vânt Presiune Umiditate
    00:00 +9°C° 0 mm 3 m/s 742 mmHg 78%
    01:00 +8°C° 0 mm 4 m/s 741 mmHg 81%
    02:00 +8°C° 0 mm 4 m/s 740 mmHg 84%
    03:00 +8°C° 0 mm 4 m/s 739 mmHg 86%
    04:00 +8°C° 0 mm 4 m/s 738 mmHg 88%
    05:00 +8°C° 0 mm 4 m/s 737 mmHg 91%
    06:00 +9°C° 0 mm 5 m/s 736 mmHg 86%
    07:00 +10°C° 0 mm 5 m/s 735 mmHg 81%
    08:00 +11°C° 0 mm 6 m/s 734 mmHg 77%
    09:00 +13°C° 0,1 mm 6 m/s 733 mmHg 77%
    10:00 +13°C° 0,1 mm 6 m/s 733 mmHg 77%
    11:00 +13°C° 0,1 mm 6 m/s 732 mmHg 77%
    12:00 +14°C° 0,3 mm 7 m/s 732 mmHg 71%
    13:00 +13°C° 0,3 mm 8 m/s 732 mmHg 65%
    14:00 +13°C° 0,3 mm 9 m/s 732 mmHg 59%
    15:00 +11°C° 0 mm 8 m/s 733 mmHg 59%
    16:00 +10°C° 0 mm 7 m/s 733 mmHg 60%
    17:00 +9°C° 0 mm 6 m/s 734 mmHg 61%
    18:00 +8°C° 0,1 mm 6 m/s 734 mmHg 64%
    19:00 +8°C° 0,1 mm 5 m/s 734 mmHg 67%
    20:00 +7°C° 0,1 mm 5 m/s 735 mmHg 70%
    21:00 +7°C° 0 mm 5 m/s 735 mmHg 71%
    22:00 +6°C° 0 mm 5 m/s 735 mmHg 72%
    23:00 +6°C° 0 mm 5 m/s 735 mmHg 73%

    Poimâine, 22 Aprilie, Duminică

    Timp Temperatura Precipitaţii Vânt Presiune Umiditate
    00:00 +6°C° 0 mm 5 m/s 735 mmHg 74%
    01:00 +5°C° 0 mm 5 m/s 736 mmHg 74%
    02:00 +5°C° 0 mm 5 m/s 736 mmHg 75%
    03:00 +5°C° 0,1 mm 5 m/s 736 mmHg 76%
    04:00 +5°C° 0,1 mm 5 m/s 736 mmHg 78%
    05:00 +3°C° 0,1 mm 5 m/s 736 mmHg 79%
    06:00 +5°C° 0,1 mm 5 m/s 736 mmHg 78%
    07:00 +5°C° 0,1 mm 5 m/s 737 mmHg 77%
    08:00 +5°C° 0,1 mm 5 m/s 737 mmHg 77%
    09:00 +6°C° 0,1 mm 5 m/s 737 mmHg 74%
    10:00 +6°C° 0,1 mm 5 m/s 737 mmHg 71%
    11:00 +7°C° 0,1 mm 5 m/s 737 mmHg 69%
    12:00 +7°C° 0,3 mm 5 m/s 738 mmHg 67%
    13:00 +8°C° 0,3 mm 5 m/s 738 mmHg 65%
    14:00 +8°C° 0,3 mm 5 m/s 738 mmHg 63%
    15:00 +8°C° 0,4 mm 4 m/s 738 mmHg 66%
    16:00 +7°C° 0,4 mm 4 m/s 738 mmHg 69%
    17:00 +7°C° 0,4 mm 4 m/s 738 mmHg 72%
    18:00 +7°C° 0,1 mm 3 m/s 738 mmHg 77%
    19:00 +6°C° 0,1 mm 2 m/s 739 mmHg 82%
    20:00 +5°C° 0,1 mm 2 m/s 739 mmHg 87%
    21:00 +4°C° 0 mm 2 m/s 740 mmHg 89%
    22:00 +3°C° 0 mm 2 m/s 740 mmHg 91%
    23:00 +4°C° 0 mm 1 m/s 740 mmHg 92%

    23 Aprilie, Luni

    Timp Temperatura Precipitaţii Vânt Presiune Umiditate
    00:00 +3°C° 0 mm 1 m/s 740 mmHg 92%
    01:00 +3°C° 0 mm 1 m/s 741 mmHg 92%
    02:00 +2°C° 0 mm 1 m/s 741 mmHg 92%
    03:00 +2°C° 0 mm 1 m/s 741 mmHg 91%
    04:00 +2°C° 0 mm 1 m/s 742 mmHg 90%
    05:00 +1°C° 0 mm 1 m/s 742 mmHg 90%
    06:00 +3°C° 0 mm 1 m/s 742 mmHg 81%
    07:00 +4°C° 0 mm 1 m/s 743 mmHg 73%
    08:00 +6°C° 0 mm 1 m/s 743 mmHg 64%
    09:00 +7°C° 0 mm 1 m/s 743 mmHg 57%
    10:00 +7°C° 0 mm 2 m/s 743 mmHg 50%
    11:00 +8°C° 0 mm 2 m/s 743 mmHg 43%
    12:00 +9°C° 0 mm 2 m/s 743 mmHg 40%
    13:00 +9°C° 0 mm 2 m/s 743 mmHg 37%
    14:00 +10°C° 0 mm 2 m/s 743 mmHg 34%
    15:00 +9°C° 0 mm 2 m/s 742 mmHg 35%
    16:00 +9°C° 0 mm 2 m/s 742 mmHg 36%
    17:00 +9°C° 0 mm 2 m/s 742 mmHg 38%
    18:00 +7°C° 0 mm 2 m/s 742 mmHg 44%
    19:00 +6°C° 0 mm 1 m/s 742 mmHg 50%
    20:00 +5°C° 0 mm 1 m/s 742 mmHg 57%
    21:00 +4°C° 0 mm 1 m/s 742 mmHg 59%
    22:00 +3°C° 0 mm 1 m/s 742 mmHg 61%
    23:00 +2°C° 0 mm 2 m/s 742 mmHg 64%

    24 Aprilie, Marţi

    Timp Temperatura Precipitaţii Vânt Presiune Umiditate
    00:00 +1°C° 0 mm 2 m/s 742 mmHg 66%
    01:00 +1°C° 0 mm 2 m/s 741 mmHg 67%
    02:00 -1°C° 0 mm 2 m/s 741 mmHg 69%
    03:00 -1°C° 0 mm 2 m/s 741 mmHg 71%
    04:00 -1°C° 0 mm 2 m/s 741 mmHg 72%
    05:00 -1°C° 0 mm 2 m/s 741 mmHg 73%
    06:00 +1°C° 0 mm 3 m/s 740 mmHg 69%
    07:00 +3°C° 0 mm 3 m/s 740 mmHg 64%
    08:00 +5°C° 0 mm 3 m/s 740 mmHg 59%
    09:00 +6°C° 0 mm 4 m/s 739 mmHg 55%
    10:00 +7°C° 0 mm 4 m/s 739 mmHg 51%
    11:00 +10°C° 0 mm 4 m/s 739 mmHg 47%
    12:00 +10°C° 0,1 mm 4 m/s 739 mmHg 48%
    13:00 +10°C° 0,1 mm 4 m/s 738 mmHg 49%
    14:00 +10°C° 0,1 mm 4 m/s 738 mmHg 50%
    15:00 +8°C° 0,3 mm 4 m/s 738 mmHg 56%
    16:00 +9°C° 0,3 mm 3 m/s 737 mmHg 63%
    17:00 +8°C° 0,3 mm 3 m/s 737 mmHg 69%
    18:00 +7°C° 0,2 mm 3 m/s 737 mmHg 74%
    19:00 +7°C° 0,2 mm 3 m/s 737 mmHg 79%
    20:00 +5°C° 0,2 mm 3 m/s 737 mmHg 84%
    21:00 +5°C° 0,1 mm 3 m/s 737 mmHg 86%
    22:00 +6°C° 0,1 mm 2 m/s 737 mmHg 88%
    23:00 +6°C° 0,1 mm 2 m/s 737 mmHg 90%

    25 Aprilie, Miercuri

    Timp Temperatura Precipitaţii Vânt Presiune Umiditate
    00:00 +6°C° 0,1 mm 2 m/s 737 mmHg 91%
    01:00 +6°C° 0,1 mm 2 m/s 737 mmHg 92%
    02:00 +6°C° 0,1 mm 2 m/s 737 mmHg 93%
    03:00 +5°C° 0,1 mm 2 m/s 737 mmHg 93%
    04:00 +5°C° 0,1 mm 2 m/s 737 mmHg 93%
    05:00 +5°C° 0,1 mm 2 m/s 737 mmHg 93%
    06:00 +5°C° 0 mm 3 m/s 737 mmHg 91%
    07:00 +5°C° 0 mm 3 m/s 737 mmHg 88%
    08:00 +7°C° 0 mm 3 m/s 737 mmHg 86%
    09:00 +7°C° 0 mm 3 m/s 738 mmHg 83%
    10:00 +8°C° 0 mm 3 m/s 738 mmHg 79%
    11:00 +8°C° 0 mm 3 m/s 738 mmHg 76%
    12:00 +9°C° 0 mm 3 m/s 738 mmHg 71%
    13:00 +10°C° 0 mm 3 m/s 738 mmHg 66%
    14:00 +11°C° 0 mm 3 m/s 737 mmHg 61%
    15:00 +11°C° 0 mm 3 m/s 737 mmHg 61%
    16:00 +11°C° 0 mm 3 m/s 736 mmHg 61%
    17:00 +11°C° 0 mm 3 m/s 736 mmHg 62%
    18:00 +11°C° 0,3 mm 4 m/s 735 mmHg 68%
    19:00 +10°C° 0,3 mm 4 m/s 735 mmHg 75%
    20:00 +8°C° 0,3 mm 4 m/s 734 mmHg 82%
    21:00 +8°C° 0,8 mm 4 m/s 733 mmHg 85%
    22:00 +8°C° 0,8 mm 5 m/s 733 mmHg 88%
    23:00 +8°C° 0,8 mm 5 m/s 732 mmHg 90%
    Arată mai mult